Torna al catalogo

ONEWEB-0539

AttivoComunicazioniPO
NORAD 54644·PAYLOAD·🇬🇧 United Kingdom

Lanciato Dec 8, 2022 da Cape Canaveral Space Force Station

Loading…

Prossimi Passaggi (prossime 24 ore)

TLE

AggiornatoSource: CelesTrak SupGP

Epoca: Sep 14, 2026, 16:42 UTC

1 54644C 22166C   26257.69599954  .00001897  00000+0  45998-2 0  2576
2 54644  87.9279 226.1578 0002298  85.1884 310.6722 13.21822614    15

Traccia ONEWEB-0539 in tempo reale con AllMySat

Download on the App Store